Regional Weather Roundup
Issued by NWS

Home | Current Version | Previous Version | Text Only | Print | Product List | Glossary Off
Versions: 1 2 3 4 5 6 7 8 9 10 11 12 13 14 15 16 17 18 19 20 21 22 23 24 25 26 27 28 29 30 31 32 33 34 35 36 37 38 39 40 41 42 43 44 45 46 47 48 49 50

000
ASUS45 KABQ 172101
RWRNM
WEATHER ROUNDUP FOR NEW MEXICO
NATIONAL WEATHER SERVICE ALBUQUERQUE NM
300 PM MDT THU APR 17 2014

NOTE: "FAIR" MEANS FEW OR NO CLOUDS BELOW 12,000 FEET AGL WITH NO
       SIGNIFICANT WEATHER OR OBSTRUCTIONS TO VISION.

      THIS PRODUCT IS RELEASED AS TWO VERSIONS.  ONE VERSION NEAR
      THE TOP OF THE HOUR CONTAINING PRELIMINARY DATA FROM ALBUQUERQUE
      AND OTHER STATIONS.  A FINAL VERSION WITH ADDITIONAL DATA IS
      ISSUED ABOUT 10 MINUTES AFTER THE HOUR.

NMZ501-503-504-510>518-172200-
NORTHWEST PLATEAU/NORTHCENTRAL MOUNTAINS

CITY           SKY/WX    TMP DP  RH WIND       PRES   REMARKS
FARMINGTON     SUNNY     64  16  15 VRB5G20   30.09F
LOS ALAMOS     SUNNY     57  26  31 SE12      30.17S
SANTA FE       SUNNY     61  27  27 S15G22    30.14F
TAOS           MOSUNNY   59  27  29 SW9G17    30.16F
ANGEL FIRE     FAIR      49  37  64 S10       30.19F

$$
NMZ402-403-502-505>509-172200-
WESTCENTRAL MOUNTAINS/SOUTHWEST MOUNTAINS

CITY           SKY/WX    TMP DP  RH WIND       PRES   REMARKS
GALLUP         FAIR      69  20  15 VRB6      30.11F
SILVER CITY    FAIR      73  12   9 S9        30.10F HAZE

$$
NMZ407-409-411-412-172200-
SOUTHERN DESERTS

CITY           SKY/WX    TMP DP  RH WIND       PRES   REMARKS
DEMING         FAIR      79  16   9 VRB3      30.03F
LAS CRUCES     FAIR      75  19  12 W5        30.07F
HOLLOMAN AFB   MOSUNNY   75  24  14 NE5G18    30.06F
T OR C         FAIR      72  24  16 VRB6      30.07F

$$
NMZ519>523-172200-
CENTRAL VALLEYS/CENTRAL HIGHLANDS

CITY           SKY/WX    TMP DP  RH WIND       PRES   REMARKS
ALBUQUERQUE    CLOUDY    66  24  20 SE8       30.13F
DOUBLE EAGLE   MOSUNNY   64  25  22 SE8       30.14F
CLINES CORNERS MOSUNNY   51  28  41 VRB3      30.21S
BELEN          FAIR      68  24  19 S8        30.12F
SOCORRO        NOT AVBL

$$
NMZ524>526-539-540-172200-
SOUTHCENTRAL MOUNTAINS

CITY           SKY/WX    TMP DP  RH WIND       PRES   REMARKS
RUIDOSO        NOT AVBL

$$
NMZ527>531-172200-
NORTHEAST HIGHLANDS/NORTHEAST PLAINS

CITY           SKY/WX    TMP DP  RH WIND       PRES   REMARKS
LAS VEGAS      CLOUDY    48  30  49 S15G21    30.22R
RATON          PTSUNNY   47  35  63 W9        30.19F
CLAYTON        CLOUDY    48  34  58 E9        30.21F

$$
NMZ532>537-172200-
EASTCENTRAL PLAINS

CITY           SKY/WX    TMP DP  RH WIND       PRES   REMARKS
TUCUMCARI      SUNNY     60  35  39 NE9       30.18F
CANNON AFB     SUNNY     61  32  33 NE12G23   30.16S
CLOVIS AIRPORT SUNNY     61  34  36 N15       30.19F

$$
NMZ028-029-538-172200-
SOUTHEAST PLAINS

CITY           SKY/WX    TMP DP  RH WIND       PRES   REMARKS
ROSWELL        SUNNY     70  31  23 N8G22     30.12F
CARLSBAD       SUNNY     73  30  20 N8        30.09F
HOBBS          SUNNY     70  32  24 NE12      30.11F


$$



USA.gov is the U.S. government's official web portal to all federal, state and local government web resources and services.